This is the latest recevied weather packets stored in our database for station/object KC5DAQ-26. If no packets are shown the sender has not sent any weather packets the latest 10 day(s).
| Time | Temp. | Humidity | Pressure | Rain* | Wind** | Luminosity | Snow |
|---|---|---|---|---|---|---|---|
| 1787950082 | 33.89° C | 67% | 1018.2 hPa | 0 mm | - | 234 W/m² | - |
| 1787950022 | 33.89° C | 67% | 1018.1 hPa | 0 mm | - | 234 W/m² | - |
| 1787949962 | 33.89° C | 67% | 1018.1 hPa | 0 mm | - | 234 W/m² | - |
| 1787949904 | 33.89° C | 69% | 1018.1 hPa | 0 mm | - | 251 W/m² | - |
| 1787949842 | 34.44° C | 66% | 1018 hPa | 0 mm | - | 236 W/m² | - |
| 1787949782 | 34.44° C | 67% | 1017.9 hPa | 0 mm | - | 250 W/m² | - |
| 1787949723 | 34.44° C | 67% | 1017.9 hPa | 0 mm | - | 250 W/m² | - |
| 1787949662 | 34.44° C | 68% | 1017.9 hPa | 0 mm | - | 287 W/m² | - |
| 1787949604 | 34.44° C | 65% | 1017.9 hPa | 0 mm | - | 364 W/m² | - |
| 1787949543 | 34.44° C | 67% | 1017.8 hPa | 0 mm | - | 389 W/m² | - |
| 1787949483 | 34.44° C | 67% | 1017.8 hPa | 0 mm | - | 350 W/m² | - |
| 1787949422 | 34.44° C | 67% | 1017.6 hPa | 0 mm | - | 280 W/m² | - |
| 1787949363 | 34.44° C | 67% | 1017.7 hPa | 0 mm | - | 255 W/m² | - |
| 1787949304 | 34.44° C | 68% | 1017.5 hPa | 0 mm | - | 266 W/m² | - |
| 1787949243 | 35° C | 65% | 1017.4 hPa | 0 mm | - | 285 W/m² | - |
| 1787949183 | 34.44° C | 68% | 1017.4 hPa | 0 mm | - | 478 W/m² | - |
| 1787949124 | 34.44° C | 65% | 1017.3 hPa | 0 mm | - | 515 W/m² | - |
| 1787949062 | 34.44° C | 66% | 1017.3 hPa | 0 mm | - | 454 W/m² | - |
| 1787949003 | 34.44° C | 68% | 1017.3 hPa | 0 mm | - | 594 W/m² | - |
| 1787948942 | 34.44° C | 67% | 1017.3 hPa | 0 mm | - | 547 W/m² | - |
| 1787948884 | 34.44° C | 66% | 1017.3 hPa | 0 mm | - | 499 W/m² | - |
| 1787948823 | 34.44° C | 65% | 1017.3 hPa | 0 mm | - | 343 W/m² | - |
| 1787948762 | 35° C | 65% | 1017.3 hPa | 0 mm | - | 390 W/m² | - |
| 1787948702 | 35° C | 66% | 1017.3 hPa | 0 mm | - | 338 W/m² | - |
| 1787948643 | 35° C | 66% | 1017.2 hPa | 0 mm | - | 338 W/m² | - |
* Rain latest hour (hover to see other rain measurements)
** Current wind speed in m/s (hover to see current wind gust speed)